Starlink 33671

operational
NORAD ID: 63320 Int'l Des: 2025-057 Owner: SPXS Country: US Constellation: starlink
LEOCIRCULAR

Starlink 33671について

説明を読み込み中...

リアルタイム位置

3D地球を読み込み中...

次回通過

高度履歴

Altitude vs Time

uPlot chart will show altitude changes over time

軌道要素

1 63320U 25057P 25306.46903512 .00031644 00000-0 11540-2 0 9990
2 63320 43.0024 18.6899 0000154 264.5876 95.4958 15.27594552 36440
Epoch: Nov 2, 2025 • Age: 8 hours

現在のステータス

高度 487.5 km
速度 7.62 km/s
衛星直下点 -20.62°S, 26.4°E
打ち上げ日 Mar 18, 2025
運用期間 0.6 years
タイプ internet

技術仕様

分類 Payload
質量 575.00 kg
乾燥質量 530.00 kg
総質量 575.00 kg
長さ 0.30 m
直径 4.10 m
スパン 29.00 m
形状 Box + pan
製造者 SPXS
バスタイプ Starlink V2MO
フェーズステータス In Orbit
所有者/国 SPXS/US

大規模コンステレーション

Loading constellations...